Weather History for Statesville, NC

Change the Weather History Date:

Wednesday, November 28, 2012

  Actual Average (KHKY) Record (KHKY)
Temperature  
Mean Temperature 47 °F -  
Max Temperature 53 °F 57 °F 74 °F (1970)
Min Temperature 41 °F 40 °F 19 °F (2002)
Degree Days  
Heating Degree Days 18    
Moisture  
Dew Point 27 °F    
Average Humidity 45    
Maximum Humidity 81    
Minimum Humidity 30    
Precipitation  
Precipitation 0.00 in - - ()
Sea Level Pressure  
Sea Level Pressure 30.31 in    
Wind  
Wind Speed 3 mph (NW)    
Max Wind Speed 9 mph    
Max Gust Speed -    
Visibility 10 miles    
Events      
Averages and records for this station are not official NWS values.
T = Trace of Precipitation, MM = Missing Value Source: NWS Daily Summary

Daily Weather History Graph

Daily Weather History Graph

Search for Another Location

Airport:

Trip Planner

Search our weather history database for the weather conditions in past years. The results will help you decide how hot, cold, wet, or windy it might be!

Date:

Astronomy

Nov. 28, 2012 Rise Set
Actual Time 7:13 AM EST 5:10 PM EST
Civil Twilight 6:45 AM EST 5:38 PM EST
Nautical Twilight 6:13 AM EST 6:10 PM EST
Astronomical Twilight 5:42 AM EST 6:40 PM EST
Moon 5:24 PM EST (11/28) 7:09 AM EST (11/28)
Length of Visible Light 10h 53m
Length of Day
9h 57m
Full, 100% of the Moon is Illuminated
Nov 28
Full
Dec 6
Last Quarter
Dec 13
New
Dec 20
First Quarter
Dec 28
Full

Hourly Weather History & Observations

Time (EST) Temp. Windchill Dew Point Humidity Pressure Visibility Wind Dir Wind Speed Gust Speed Precip Events Conditions
9:15 AM 41.0 °F 39.0 °F 35.6 °F 81% 30.33 in 7.0 mi NE 3.5 mph - N/A   Clear
9:35 AM 42.8 °F - 35.6 °F 76% 30.34 in 10.0 mi Calm Calm - N/A   Clear
9:55 AM 42.8 °F 40.1 °F 33.8 °F 70% 30.35 in 10.0 mi NE 4.6 mph - N/A   Clear
10:15 AM 44.6 °F - 32.0 °F 61% 30.35 in 10.0 mi Calm Calm - N/A   Clear
10:35 AM 44.6 °F - 32.0 °F 61% 30.35 in 10.0 mi Calm Calm - N/A   Clear
10:55 AM 46.4 °F - 32.0 °F 57% 30.35 in 10.0 mi Calm Calm - N/A   Clear
11:15 AM 46.4 °F 45.2 °F 32.0 °F 57% 30.35 in 10.0 mi West 3.5 mph - N/A   Clear
11:35 AM 48.2 °F - 32.0 °F 54% 30.34 in 10.0 mi NW 4.6 mph - N/A   Clear
11:55 AM 48.2 °F - 32.0 °F 54% 30.34 in 10.0 mi SW 3.5 mph - N/A   Clear
12:15 PM 50.0 °F - 28.4 °F 43% 30.33 in 10.0 mi NNW 4.6 mph - N/A   Clear
12:35 PM 50.0 °F - 28.4 °F 43% 30.32 in 10.0 mi Calm Calm - N/A   Clear
12:55 PM 50.0 °F - 28.4 °F 43% 30.31 in 10.0 mi West 5.8 mph - N/A   Clear
1:15 PM 51.8 °F - 26.6 °F 38% 30.30 in 10.0 mi West 6.9 mph - N/A   Clear
1:35 PM 53.6 °F - 26.6 °F 35% 30.30 in 10.0 mi West 9.2 mph - N/A   Clear
1:55 PM 51.8 °F - 26.6 °F 38% 30.29 in 10.0 mi SSW 4.6 mph - N/A   Clear
2:15 PM 53.6 °F - 26.6 °F 35% 30.28 in 10.0 mi Calm Calm - N/A   Clear
2:35 PM 53.6 °F - 23.0 °F 30% 30.28 in 10.0 mi NW 4.6 mph - N/A   Clear
2:55 PM 53.6 °F - 23.0 °F 30% 30.27 in 10.0 mi West 4.6 mph - N/A   Clear
3:15 PM 53.6 °F - 23.0 °F 30% 30.27 in 10.0 mi WSW 5.8 mph - N/A   Clear
3:35 PM 53.6 °F - 24.8 °F 33% 30.28 in 10.0 mi Calm Calm - N/A   Clear
3:55 PM 53.6 °F - 23.0 °F 30% 30.28 in 10.0 mi Calm Calm - N/A   Clear
4:15 PM 53.6 °F - 23.0 °F 30% 30.28 in 10.0 mi Calm Calm - N/A   Clear
4:35 PM 51.8 °F - 24.8 °F 35% 30.29 in 10.0 mi Calm Calm - N/A   Clear
4:55 PM 51.8 °F - 23.0 °F 33% 30.29 in 10.0 mi Calm Calm - N/A   Clear
5:15 PM 50.0 °F - 23.0 °F 35% 30.30 in 10.0 mi Calm Calm - N/A   Clear
5:35 PM 50.0 °F - 23.0 °F 35% 30.30 in 10.0 mi Calm Calm - N/A   Clear
5:55 PM 44.6 °F - 24.8 °F 46% 30.30 in 10.0 mi Calm Calm - N/A   Clear
6:15 PM 44.6 °F - 24.8 °F 46% 30.31 in 10.0 mi Calm Calm - N/A   Clear
6:35 PM 42.8 °F 40.1 °F 23.0 °F 46% 30.31 in 10.0 mi North 4.6 mph - N/A   Clear
6:55 PM 44.6 °F 41.4 °F 23.0 °F 43% 30.32 in 10.0 mi North 5.8 mph - N/A   Clear
7:15 PM 44.6 °F 42.2 °F 21.2 °F 39% 30.33 in 10.0 mi NNE 4.6 mph - N/A   Clear
7:35 PM 44.6 °F 43.1 °F 23.0 °F 43% 30.34 in 10.0 mi NNE 3.5 mph - N/A   Clear
7:55 PM 42.8 °F - 23.0 °F 46% 30.34 in 10.0 mi Calm Calm - N/A   Clear